#timestamp,LO_Frequency,Hit 
1502524815.8,286047002.7,N
1502524835.6,286047002.5,N
1502524855.5,286047002.0,N
1502524875.3,286047001.1,N
1502524895.1,286046997.6,N
1502524915.9,286046996.8,N
1502524935.7,286046999.0,N
1502524955.5,286046998.1,N
1502524975.4,286046999.7,N
1502524995.2,286046996.5,N
1502525015.0,286046999.3,N
1502525015.9,286046999.3,N
1502525035.8,286046997.7,N
1502525055.6,286046995.6,N
1502525075.4,286046995.7,N
1502525095.3,286046997.6,N
1502525115.1,286046997.0,N
1502525116.0,286046997.0,N
1502525135.8,286046996.0,N
1502525155.6,286046996.7,N
1502525175.5,286047001.2,N
1502525195.3,286046999.4,N
1502525215.1,286046998.6,N
1502525235.9,286046995.4,N
1502525255.7,286046997.4,N
1502525275.5,286046999.5,N
1502525295.4,286046997.0,N
1502525315.2,286046996.0,N
1502525335.0,286046999.5,N
1502525335.9,286046999.5,N
1502525355.8,286047001.2,N
1502525375.5,286047001.7,N
1502525395.3,286047002.0,N
1502525415.2,286047003.9,N
1502525435.9,286047003.3,N
1502525455.7,286047001.0,N
1502525475.6,286046999.9,N
1502525495.4,286047003.5,N
1502525515.2,286047001.5,N
1502525535.1,286047002.7,N
1502525536.0,286047002.7,N
1502525555.8,286047000.1,N
1502525575.6,286047001.8,N
1502525595.5,286047003.7,N
1502525615.3,286047002.1,N
1502525635.1,286046998.9,N
1502525655.9,286046997.2,N
1502525675.7,286047000.4,N
1502525695.5,286046999.4,N
1502525715.3,286046997.2,N
1502525735.2,286047000.6,N
1502525755.0,286047001.1,N
1502525755.9,286047001.1,N
1502525775.7,286046999.3,N
1502525795.6,286046996.6,N
1502525815.4,286046998.2,N
1502525835.2,286047000.7,N
1502525855.1,286047000.0,N
1502525856.0,286047000.0,N
1502525875.8,286046999.7,N
1502525895.6,286047002.4,N
1502525915.5,286046997.8,N
1502525935.3,286047000.5,N
1502525955.1,286047000.3,N
1502525975.9,286047000.8,N
1502525995.7,286047002.4,N
1502526015.5,286047001.9,N
1502526035.4,286047001.1,N
1502526055.2,286047000.8,N
1502526075.0,286047000.8,N
1502526075.9,286047000.8,N
1502526095.8,286046997.9,N
1502526115.6,286046997.7,N
1502526135.4,286047000.5,N
1502526155.3,286046999.1,N
1502526175.8,286046999.1,N
1502526195.7,286047000.5,N
1502526215.5,286047000.3,N
1502526235.3,286047002.5,N
1502526255.2,286047001.7,N
1502526275.0,286047000.3,N
1502526275.9,286047000.3,N
1502526295.7,286046998.4,N
1502526315.6,286046999.4,N
1502526335.4,286046995.2,P
1502526355.2,286046995.2,N
1502526375.1,286046999.1,N
1502526376.0,286046999.1,N
1502526395.8,286046996.7,N
1502526415.6,286046996.3,N
1502526435.5,286046995.6,N
1502526455.3,286046999.2,N
1502526475.1,286047004.0,N
1502526495.9,286047003.1,N
1502526515.7,286047004.1,N
1502526535.5,286047002.5,N
1502526555.4,286047003.2,N
1502526575.5,286047001.9,N
1502526595.4,286047006.9,N
1502526615.2,286047006.8,N
1502526635.0,286047005.6,N
1502526635.9,286047005.6,N
1502526655.8,286047001.7,N
1502526675.6,286047004.4,N
1502526695.4,286047003.2,N
1502526715.3,286047005.0,N
1502526735.1,286047001.4,N
1502526736.0,286047001.4,N
1502526755.8,286047003.6,N
1502526775.7,286047002.9,N
1502526795.5,286047001.4,N
1502526815.3,286047001.8,N
1502526835.2,286047002.5,N
1502526855.9,286047003.5,N
1502526875.9,286047003.6,N
1502526895.7,286047000.6,N
1502526915.6,286046999.9,N
1502526935.4,286047002.3,N
1502526955.2,286047005.8,N
1502526975.1,286047003.8,N
1502526976.0,286047003.8,N
1502526995.8,286047000.9,N
1502527015.6,286047002.4,N
1502527035.5,286046998.3,N
1502527055.3,286046997.6,N
1502527075.1,286046995.4,N
1502527095.9,286046998.2,N
1502527115.7,286046997.2,N
1502527135.5,286046999.4,N
1502527155.3,286046999.9,N
1502527175.2,286047000.3,N
1502527195.0,286046998.5,N
1502527195.9,286046998.5,N
1502527215.8,286047000.2,N
1502527235.6,286046999.9,N
1502527255.4,286046999.1,N
1502527275.2,286046999.0,N
1502527295.1,286047001.2,N
1502527296.0,286047001.2,N
1502527315.8,286047002.2,N
1502527335.6,286047004.4,N
1502527355.5,286047004.7,N
1502527375.3,286047003.9,N
1502527395.1,286047003.7,N
1502527415.9,286047004.3,N
1502527435.2,286047003.4,N
1502527455.0,286047005.8,N
1502527455.9,286047005.8,N
1502527475.8,286047005.1,N
1502527495.6,286047003.7,N
1502527515.4,286047001.6,N
1502527535.3,286046998.5,N
1502527555.1,286047001.6,N
1502527556.0,286047001.6,N
1502527575.8,286047001.1,N
1502527595.7,286046999.7,N
1502527615.5,286047004.5,N
1502527635.3,286047007.6,P
1502527655.2,286047006.0,N
1502527675.9,286047005.6,N
1502527695.7,286047001.9,N
1502527715.6,286047007.2,P
1502527735.4,286046998.4,N
1502527755.2,286046995.8,N
1502527775.1,286047001.1,N
1502527776.0,286047001.1,N
1502527795.8,286047000.5,N
1502527815.6,286046998.6,N
1502527835.5,286046998.2,N
1502527855.3,286046996.4,N
1502527875.1,286046997.8,N
1502527895.9,286046998.0,N
1502527915.7,286046995.1,N
1502527935.4,286046995.0,N
1502527955.2,286046997.1,N
1502527975.1,286046999.1,N
1502527976.0,286046999.1,N
1502527995.8,286046990.6,P
1502528015.0,286046993.4,N
1502528015.9,286046993.4,N
1502528035.8,286046991.8,N
1502528055.6,286046994.1,N
1502528075.4,286046996.4,N
1502528095.3,286046996.4,N
1502528115.1,286046995.7,N
1502528116.0,286046995.7,N
1502528135.8,286046996.2,N
1502528155.7,286046994.4,N
1502528175.5,286046992.5,P
1502528195.3,286046997.3,N
1502528215.2,286046998.8,N
1502528235.9,286046999.3,N
1502528255.7,286046998.9,N
1502528275.6,286046996.6,N
1502528295.4,286046999.5,N
1502528315.2,286046998.7,N
1502528335.1,286046997.1,N
1502528336.0,286046997.1,N
1502528355.8,286047000.1,N
1502528375.6,286047000.3,N
1502528395.5,286046998.5,N
